This is the latest recevied weather packets stored in our database for station/object G0TGD-10. If no packets are shown the sender has not sent any weather packets the latest 10 day(s).
| Time | Temp. | Humidity | Pressure | Rain* | Wind** | Luminosity | Snow |
|---|---|---|---|---|---|---|---|
| 1777970178 | 19.44° C | 67% | 1013.9 hPa | - | - | - | - |
| 1777969278 | 20.56° C | 68% | 1014 hPa | - | - | - | - |
| 1777968377 | 16.67° C | 73% | 1014.1 hPa | - | - | - | - |
| 1777967476 | 13.89° C | 73% | 1014 hPa | - | - | - | - |
| 1777966576 | 12.22° C | 75% | 1014.1 hPa | - | - | - | - |
| 1777965676 | 10.56° C | 76% | 1014.2 hPa | - | - | - | - |
| 1777964776 | 9.44° C | 77% | 1014.3 hPa | - | - | - | - |
| 1777963876 | 8.89° C | 78% | 1014.3 hPa | - | - | - | - |
| 1777962976 | 7.78° C | 79% | 1014.4 hPa | - | - | - | - |
| 1777962076 | 6.67° C | 80% | 1014.5 hPa | - | - | - | - |
| 1777961176 | 6.11° C | 80% | 1014.6 hPa | - | - | - | - |
| 1777960276 | 5° C | 80% | 1014.7 hPa | - | - | - | - |
| 1777959376 | 3.89° C | 80% | 1014.6 hPa | - | - | - | - |
| 1777958476 | 3.89° C | 80% | 1014.6 hPa | - | - | - | - |
| 1777957576 | 3.33° C | 81% | 1014.5 hPa | - | - | - | - |
| 1777956675 | 2.78° C | 81% | 1014.4 hPa | - | - | - | - |
| 1777955775 | 2.78° C | 81% | 1014.5 hPa | - | - | - | - |
| 1777954875 | 2.78° C | 80% | 1014.5 hPa | - | - | - | - |
| 1777953975 | 3.33° C | 79% | 1014.3 hPa | - | - | - | - |
| 1777953075 | 3.33° C | 79% | 1014.2 hPa | - | - | - | - |
| 1777952175 | 3.33° C | 79% | 1014.1 hPa | - | - | - | - |
| 1777951275 | 3.33° C | 79% | 1014.3 hPa | - | - | - | - |
| 1777950375 | 3.89° C | 79% | 1014.3 hPa | - | - | - | - |
| 1777949475 | 3.89° C | 79% | 1014.3 hPa | - | - | - | - |
| 1777948575 | 3.89° C | 79% | 1014.4 hPa | - | - | - | - |
* Rain since midnight (hover to see other rain measurements)
** Current wind speed in m/s (hover to see current wind gust speed)